Helicity
139 91 107 103 71 101 122 145 152 103 74 79 74 96 151 172 117 47 13 52 97 125 111 120 154 110 91 85 75 97 125 163 162 86 134 142 142 133 108 104 107 123 118 101
143 110 101 82 87 91 86 41 88 38 64 40 92 139 157 124 88 62 56 44 61 86 64 101 134 95 67 63 106 124 149 200 223 192 108 76 59 80 113 131 124 110 108 99
168 142 80 81 63 70 44 109 128 113 95 130 119 141 119 75 92 98 73 86 94 59 -2 95 112 88 55 99 108 121 131 116 109 94 80 81 97 108 113 105 92 85 86 88
241 171 153 119 84 97 68 32 90 76 88 117 121 103 65 157 170 131 85 68 -4 -19 67 64 65 87 103 110 105 98 103 123 128 120 114 111 114 101 88 77 75 69 76 97
220 195 158 54 41 88 115 98 108 126 139 121 87 56 142 232 204 110 86 8 35 66 64 83 94 98 75 78 119 119 149 147 125 116 117 118 95 82 70 63 54 68 88 80
234 188 165 108 118 96 108 124 172 146 172 98 107 176 150 239 103 25 89 47 45 83 87 84 75 79 79 97 141 191 188 151 136 117 115 86 77 68 59 53 68 89 82 75
181 171 122 104 69 106 162 201 188 141 131 133 139 198 204 153 100 75 24 30 58 80 80 74 82 98 110 148 171 181 149 141 92 97 76 69 62 58 55 64 83 84 81 71
164 141 72 137 117 131 166 136 102 127 125 149 206 150 46 -5 25 -6 39 38 50 83 89 106 101 113 124 123 112 116 130 118 89 79 77 66 55 51 68 82 79 73 62 62
188 213 158 171 143 139 141 139 135 95 163 184 113 90 -7 28 46 59 53 60 85 106 121 128 124 147 147 108 135 143 153 122 104 97 82 72 66 63 79 86 84 80 78 71
216 196 159 104 139 172 167 128 145 70 83 43 35 49 21 89 78 90 82 67 86 112 119 137 152 175 145 154 161 171 159 139 131 109 93 82 79 89 93 86 89 91 78 75
226 114 67 91 139 148 158 150 49 95 80 56 66 75 79 82 92 97 78 80 98 104 119 145 161 149 159 145 149 157 143 150 145 131 109 96 99 87 87 98 101 103 100 94
218 137 160 195 209 218 58 -12 18 35 99 91 73 77 96 102 89 84 95 88 86 99 145 156 160 151 155 132 130 116 119 142 154 128 114 108 93 76 86 97 106 117 99 97
161 188 203 188 74 89 101 85 89 108 75 74 94 103 95 81 88 112 119 90 76 100 120 136 152 154 135 118 103 105 107 125 124 114 111 103 82 79 78 87 79 100 91 76
178 184 216 188 161 137 123 134 104 62 80 89 83 86 100 122 134 125 103 87 91 96 124 149 139 128 106 84 83 90 102 108 96 95 99 89 82 79 92 102 93 69 72 59
322 341 298 223 195 146 117 84 81 90 88 70 71 80 104 126 116 111 98 79 81 102 139 141 131 109 73 54 66 77 80 77 75 80 82 82 79 82 107 110 110 85 75 57
247 219 184 150 103 108 87 76 56 42 46 56 60 107 120 124 118 111 100 108 134 117 133 111 100 96 34 47 51 58 58 58 67 74 64 72 77 80 94 102 105 84 78 52
174 155 107 101 86 65 57 57 52 60 94 134 127 147 122 123 137 118 104 123 143 121 118 98 103 49 27 34 37 44 48 54 64 68 59 68 74 75 82 93 102 91 86 24
95 78 85 75 75 76 64 46 75 109 115 115 134 148 146 146 140 114 95 120 120 110 105 114 87 31 37 43 42 43 50 60 69 68 66 64 66 75 78 80 89 95 82 24
90 98 98 81 78 57 69 107 113 115 113 127 142 145 135 163 148 126 112 130 115 100 101 109 53 40 36 42 42 47 52 57 68 73 74 66 69 77 79 76 75 84 82 56
109 100 77 63 80 120 108 109 108 107 123 142 150 159 127 122 114 112 128 126 109 100 110 73 42 34 47 47 45 42 49 47 61 72 77 66 70 71 79 84 76 74 76 59
68 62 84 103 104 109 114 106 107 115 103 118 144 133 127 132 139 137 122 104 79 104 87 56 48 40 48 48 41 38 48 49 57 59 70 69 70 74 75 80 81 74 63 62
93 111 116 112 106 92 91 101 101 106 115 124 125 120 110 124 121 122 124 83 67 95 85 60 54 46 44 44 44 44 45 46 46 54 74 74 74 76 78 79 75 72 68 55
116 124 109 104 100 93 103 108 106 120 119 110 111 110 103 114 121 83 72 72 63 74 68 62 64 44 39 47 53 48 41 37 41 46 70 77 72 76 81 84 80 72 64 57
105 107 97 100 105 104 101 99 109 105 107 109 116 123 100 100 75 90 71 54 57 77 69 64 71 54 42 44 54 51 40 44 51 51 67 76 76 79 80 86 87 81 69 58
110 100 99 80 59 87 94 130 116 87 81 94 107 112 100 87 91 74 54 59 82 74 62 67 79 69 57 56 56 48 39 40 38 49 74 82 80 81 83 91 94 89 81 63
93 93 91 78 69 76 114 142 136 117 98 105 98 103 86 64 63 64 61 56 69 67 53 68 72 72 62 51 53 51 45 45 44 49 59 77 86 85 88 96 101 102 96 75
104 109 97 89 89 84 108 118 122 113 100 96 96 91 64 60 72 83 87 99 92 94 64 72 68 66 60 52 57 55 56 53 55 55 60 66 74 79 91 100 104 109 111 99
Wind_Speed
37 37 43 44 44 40 39 37 48 56 59 60 66 66 55 65 74 75 78 78 76 78 82 81 80 82 81 83 83 80 78 74 75 75 71 72 72 69 65 61 60 59 57 56
50 51 49 53 53 43 28 38 42 42 53 61 58 51 65 77 80 79 78 74 75 81 81 77 82 85 87 86 82 73 74 73 73 72 70 69 68 67 64 65 63 60 61 62
56 54 62 62 41 38 52 49 49 62 68 64 65 68 78 84 78 78 76 78 79 77 76 82 85 88 90 84 76 72 73 69 71 71 71 69 68 66 67 65 62 62 62 63
56 61 62 45 43 49 50 47 49 58 64 59 71 78 77 76 72 75 78 79 73 75 79 79 84 86 79 73 73 73 70 71 71 69 67 68 68 67 65 62 63 64 64 64
58 54 58 57 45 45 51 58 54 58 62 75 88 95 80 69 70 74 74 70 73 75 73 82 85 80 74 76 74 71 71 71 66 64 67 68 67 65 63 63 64 64 66 70
54 61 62 50 49 50 48 70 48 61 83 96 88 99 92 69 70 71 69 72 75 73 76 82 82 78 78 77 74 68 66 65 62 62 64 64 63 64 62 62 63 65 68 68
50 55 53 46 44 43 70 75 59 72 80 80 80 77 73 71 69 70 69 75 75 72 80 80 79 80 80 73 69 60 57 57 57 57 59 60 60 60 62 64 62 66 67 66
47 50 59 42 49 67 65 77 71 73 76 75 68 72 68 66 70 73 80 82 74 76 79 77 77 76 74 69 60 53 52 52 52 54 57 57 58 60 63 64 64 67 68 68
39 43 50 55 59 64 71 68 71 72 66 67 69 66 69 73 76 77 80 82 74 77 79 76 73 68 68 62 57 50 48 48 50 54 55 56 59 63 64 63 65 67 69 74
52 46 56 62 66 62 59 70 63 58 62 63 68 73 77 78 79 80 83 85 82 81 81 77 71 67 62 58 52 46 45 45 49 52 55 57 59 60 61 63 65 66 70 73
53 61 62 63 61 62 60 60 56 57 65 71 72 77 77 80 80 84 86 87 86 85 81 75 73 68 63 56 48 43 42 43 46 49 55 59 59 59 58 58 59 64 66 68
66 65 73 74 62 58 54 59 64 69 73 72 74 79 80 84 83 84 88 89 89 84 79 75 70 67 61 57 49 43 43 42 43 48 54 56 59 60 54 53 57 56 58 59
65 69 62 61 53 53 62 65 67 70 73 81 81 80 83 86 84 85 84 85 87 85 75 70 66 62 61 55 52 49 44 42 43 47 51 55 57 59 59 56 55 55 57 60
55 51 63 58 60 57 62 66 69 73 76 77 79 82 81 84 83 83 87 88 84 77 72 64 62 60 54 53 51 48 45 43 43 46 47 50 53 53 55 58 60 57 56 60
55 56 50 50 56 62 66 72 80 81 82 85 83 84 84 85 85 84 84 83 80 75 66 58 56 52 50 50 49 45 43 44 44 43 44 46 47 49 53 57 56 57 57 57
48 51 56 61 66 72 77 82 84 85 85 87 89 89 85 81 80 81 82 81 81 76 59 48 47 47 50 46 44 43 44 43 42 44 45 46 47 49 52 57 58 58 57 61
58 65 67 72 75 80 82 83 83 86 89 89 90 87 86 84 79 80 80 77 67 56 46 40 40 44 47 42 40 41 42 40 42 45 47 46 46 48 50 55 58 56 51 58
52 58 65 71 80 87 89 88 89 89 89 88 86 84 84 81 79 80 74 67 57 47 35 34 37 40 43 42 42 43 39 37 39 44 45 47 45 46 49 52 55 55 52 57
60 67 72 75 78 84 87 88 88 87 86 84 84 84 79 70 67 64 60 57 46 37 32 30 39 41 38 38 41 42 40 38 37 41 44 46 44 45 48 49 52 53 51 54
71 74 75 79 81 80 84 84 85 86 84 81 81 77 75 66 56 52 51 41 25 23 26 31 38 35 34 36 38 40 37 36 34 39 43 44 43 43 45 46 47 50 51 53
76 78 79 80 82 82 81 81 82 85 84 79 77 73 63 53 44 40 42 31 22 17 18 30 31 31 31 33 36 40 36 35 36 38 41 43 43 40 41 43 45 44 49 50
76 77 79 80 81 82 80 80 79 79 80 77 73 64 56 48 35 32 26 16 27 22 21 30 32 30 31 32 36 42 37 36 37 37 38 42 43 38 38 39 41 43 41 47
74 75 75 75 76 78 78 77 76 75 77 74 67 60 54 43 33 30 27 26 20 21 24 32 33 28 31 31 32 37 38 38 38 38 39 41 44 40 39 36 37 39 40 40
71 69 68 67 70 75 80 76 72 73 68 63 57 51 48 44 38 24 19 25 28 27 28 32 31 31 32 33 32 34 36 35 34 36 38 39 42 41 41 37 35 37 37 37
65 63 64 68 73 74 73 71 70 67 65 61 54 46 46 41 28 29 25 23 28 33 35 32 29 32 32 34 36 37 38 38 39 35 32 35 39 41 40 38 35 34 36 34
62 63 61 60 64 67 67 65 64 59 63 63 56 49 49 43 27 24 23 23 28 34 36 34 32 32 31 32 33 35 38 40 41 39 37 31 32 38 39 37 35 32 31 32
56 56 61 66 62 63 65 58 59 58 60 58 50 51 48 36 26 24 21 23 29 34 38 36 30 28 30 32 33 35 38 41 41 41 41 39 36 37 36 35 34 32 29 29
Wind_Direction
348 342 338 334 327 327 323 323 324 327 327 330 331 333 338 338 336 335 335 336 337 338 338 339 340 340 341 340 339 339 339 339 338 339 340 340 340 342 342 342 339 339 339 338
347 342 340 335 328 325 333 331 327 327 327 334 338 341 335 334 335 336 336 337 337 338 340 340 340 340 339 339 340 342 342 342 343 343 342 342 342 342 343 341 341 341 339 336
344 345 339 334 345 343 334 332 332 330 332 337 335 334 333 334 335 336 338 338 338 340 340 339 341 340 340 341 343 344 344 345 344 343 344 345 345 345 344 343 344 342 341 339
341 341 337 350 341 330 328 333 332 332 334 339 335 334 334 337 337 338 338 337 338 339 341 342 342 342 343 344 343 343 344 344 344 346 347 347 346 345 345 346 345 343 341 340
338 339 338 343 352 347 338 333 335 336 338 335 333 331 331 336 339 338 337 339 339 341 342 342 342 344 343 342 343 342 343 345 347 348 347 347 347 348 347 346 345 344 342 339
336 333 335 347 350 350 347 330 348 341 332 331 333 330 332 340 341 340 340 339 340 341 341 342 343 343 342 340 341 342 344 347 349 350 350 350 350 349 349 348 346 345 342 342
333 331 335 342 353 359 336 333 338 335 333 333 334 334 336 338 339 339 339 339 338 338 338 341 343 343 342 343 343 344 346 349 350 353 354 354 353 353 351 349 347 345 344 344
338 336 338 357 346 336 336 331 332 334 334 334 339 339 341 340 338 338 337 338 338 337 339 341 342 343 344 345 348 350 350 351 353 354 355 356 355 354 353 351 349 347 347 346
330 329 333 335 329 331 333 334 336 336 341 340 338 337 337 336 336 336 337 338 338 337 337 339 342 343 342 344 348 348 349 351 353 354 356 357 355 354 353 353 351 350 349 347
324 328 326 328 329 333 338 337 339 340 338 341 337 335 333 334 335 335 337 337 337 336 335 336 340 342 341 343 345 347 348 350 353 355 356 356 356 356 355 354 353 352 350 348
320 324 328 333 334 334 337 341 342 341 338 337 335 334 334 334 334 335 335 336 337 336 335 336 339 339 341 342 346 345 347 350 353 356 357 357 359 359 359 359 359 356 355 354
322 328 328 333 338 341 342 342 340 337 337 338 337 335 335 334 334 335 335 336 336 336 336 337 339 341 344 346 348 349 349 352 356 357 358 0 1 2 7 8 6 7 5 5
322 328 333 335 342 342 340 339 339 340 339 336 336 335 335 333 334 334 336 337 336 336 336 337 340 343 345 347 349 351 354 358 0 1 2 4 5 6 7 10 11 13 11 8
332 335 332 335 336 341 340 339 338 337 337 337 336 336 335 335 335 335 336 336 336 336 336 337 340 343 349 350 351 356 1 5 6 6 10 11 11 13 13 11 11 13 14 11
339 342 344 344 342 339 338 336 334 334 336 335 336 335 335 334 334 334 336 337 338 336 336 339 343 348 350 350 354 1 7 9 12 15 16 17 18 17 17 16 17 15 15 17
345 346 343 340 337 335 335 334 332 332 333 334 334 334 335 334 334 335 337 338 338 339 342 346 350 352 349 355 3 7 9 14 17 18 18 18 20 19 19 18 19 18 20 13
336 335 336 335 335 333 333 334 333 331 331 331 332 334 334 334 334 336 338 341 342 344 349 353 354 352 351 1 8 10 13 18 19 19 19 20 21 21 22 20 19 22 27 2
344 340 338 335 333 333 333 334 333 333 332 333 333 333 334 334 335 337 341 345 348 351 359 2 359 358 358 4 6 8 14 19 20 19 19 20 21 22 22 22 20 23 27 3
339 336 335 335 335 334 333 334 334 334 335 335 335 333 334 334 336 341 345 348 353 1 10 15 1 359 6 9 6 11 15 18 20 19 19 19 21 22 22 24 21 22 26 18
334 334 334 334 334 335 335 335 336 336 336 336 335 335 336 339 341 344 349 353 7 23 27 16 5 10 13 12 11 10 13 15 18 17 18 18 20 21 22 23 25 21 22 19
332 333 333 334 334 335 336 337 338 337 338 339 339 338 338 341 343 347 353 1 21 34 37 16 17 17 15 16 14 10 13 17 18 16 17 17 17 20 21 22 23 25 17 18
332 333 333 334 335 336 338 340 340 340 340 340 341 342 342 343 345 350 357 9 14 24 25 12 13 16 16 17 14 12 15 16 15 16 15 15 15 18 21 20 21 21 23 14
332 332 333 335 337 338 339 341 342 342 342 343 344 345 345 348 351 354 2 14 24 22 14 6 10 16 13 13 14 14 14 17 17 17 16 14 13 16 18 21 21 19 18 19
332 334 335 338 340 340 340 343 344 345 346 348 349 350 350 352 354 3 18 14 10 12 7 4 9 10 7 8 10 11 11 12 14 18 19 18 16 16 17 20 21 19 18 17
333 335 337 338 339 341 343 346 346 347 349 349 351 354 354 353 357 5 12 14 7 0 356 2 10 8 7 5 6 8 9 10 12 14 15 16 15 13 15 18 20 20 18 16
334 335 338 340 340 341 344 347 348 350 351 350 352 356 357 359 8 8 12 12 6 3 2 1 3 7 9 8 9 8 7 7 9 11 12 13 11 9 11 14 18 20 19 18
335 337 337 337 340 342 342 344 346 349 352 352 352 353 356 2 7 2 358 357 356 357 356 358 5 8 9 6 5 5 5 5 6 7 8 10 9 5 5 10 14 17 18 16